Weather History for Fort Rucker / Ozark, AL

Change the Weather History Date:

Wednesday, February 5, 2014

  Actual Average (KOZR) Record (KOZR)
Temperature  
Mean Temperature 53 °F -  
Max Temperature 69 °F 58 °F 80 °F (2008)
Min Temperature 37 °F 38 °F 21 °F (2009)
Degree Days  
Heating Degree Days 12    
Growing Degree Days 3 (Base 50)    
Moisture  
Dew Point 50 °F    
Average Humidity 80    
Maximum Humidity 100    
Minimum Humidity 57    
Precipitation  
Precipitation 0.19 in - - ()
Sea Level Pressure  
Sea Level Pressure 29.92 in    
Wind  
Wind Speed 10 mph (WNW)    
Max Wind Speed 16 mph    
Max Gust Speed 24 mph    
Visibility 9 miles    
Events Rain    
Averages and records for this station are not official NWS values.
T = Trace of Precipitation, MM = Missing Value Source: NWS Daily Summary

Daily Weather History Graph

Daily Weather History Graph

Search for Another Location

Airport:

Trip Planner

Search our weather history database for the weather conditions in past years. The results will help you decide how hot, cold, wet, or windy it might be!

Date:

Astronomy

Feb. 05, 2014 Rise Set
Actual Time 6:32 AM CST 5:21 PM CST
Civil Twilight 6:07 AM CST 5:46 PM CST
Nautical Twilight 5:38 AM CST 6:15 PM CST
Astronomical Twilight 5:09 AM CST 6:43 PM CST
Moon 10:13 AM CST (2/5) 11:46 PM CST (2/5)
Length of Visible Light 11h 39m
Length of Day
10h 48m
Waxing Crescent, 39% of the Moon is Illuminated
Feb 5
Waxing Crescent
Feb 6
First Quarter
Feb 14
Full
Feb 22
Last Quarter
Mar 1
New

Hourly Weather History & Observations

Time (CST) Temp. Windchill Dew Point Humidity Pressure Visibility Wind Dir Wind Speed Gust Speed Precip Events Conditions
12:53 AM 64.9 °F - 64.0 °F 97% 29.60 in 5.0 mi South 8.1 mph - N/A   Overcast
1:32 AM 66.2 °F - 64.4 °F 94% 29.92 in 2.5 mi South 8.1 mph 19.6 mph N/A   Overcast
1:53 AM 66.0 °F - 66.0 °F 100% 29.58 in 2.5 mi South 9.2 mph 16.1 mph N/A   Overcast
2:26 AM 66.2 °F - 66.2 °F 100% 29.90 in 4.0 mi South 9.2 mph 19.6 mph N/A   Overcast
2:53 AM 68.0 °F - 66.9 °F 96% 29.57 in 10.0 mi SSW 10.4 mph 21.9 mph N/A   Overcast
3:08 AM 69.8 °F - 66.2 °F 88% 29.91 in 9.0 mi SSW 11.5 mph 18.4 mph N/A   Overcast
3:53 AM 69.1 °F - 66.9 °F 93% 29.58 in 9.0 mi SW 9.2 mph 17.3 mph 0.00 in Rain Light Rain
4:03 AM 69.8 °F - 66.2 °F 88% 29.91 in 7.0 mi SW 10.4 mph 16.1 mph 0.01 in Rain Light Rain
4:26 AM 64.4 °F - 64.4 °F 100% 29.94 in 1.8 mi West 11.5 mph 17.3 mph 0.14 in Rain Heavy Rain
4:37 AM 64.4 °F - 62.6 °F 94% 29.94 in 3.0 mi WNW 11.5 mph 21.9 mph 0.19 in Rain Rain
4:51 AM 64.4 °F - 62.6 °F 94% 29.94 in 10.0 mi WNW 9.2 mph 18.4 mph 0.19 in   Overcast
4:53 AM 64.9 °F - 62.1 °F 90% 29.61 in 10.0 mi West 9.2 mph - 0.19 in   Overcast
5:53 AM 63.0 °F - 60.1 °F 90% 29.63 in 10.0 mi WNW 6.9 mph - 0.00 in   Overcast
6:26 AM 62.6 °F - 60.8 °F 94% 29.98 in 10.0 mi West 6.9 mph - N/A   Overcast
6:36 AM 62.6 °F - 60.8 °F 94% 29.99 in 10.0 mi WNW 6.9 mph - N/A   Overcast
6:53 AM 62.1 °F - 59.0 °F 90% 29.66 in 10.0 mi WNW 5.8 mph - N/A   Overcast
7:20 AM 60.8 °F - 57.2 °F 88% 30.00 in 10.0 mi NW 9.2 mph - N/A   Overcast
7:53 AM 60.1 °F - 55.0 °F 83% 29.70 in 10.0 mi NW 9.2 mph - N/A   Mostly Cloudy
8:08 AM 59.0 °F - 55.4 °F 88% 30.04 in 10.0 mi NW 9.2 mph - N/A   Overcast
8:29 AM 59.0 °F - 51.8 °F 77% 30.05 in 10.0 mi NW 12.7 mph 19.6 mph N/A   Scattered Clouds
8:53 AM 60.1 °F - 51.1 °F 72% 29.73 in 10.0 mi NW 9.2 mph - N/A   Partly Cloudy
9:53 AM 57.9 °F - 48.9 °F 72% 29.75 in 10.0 mi NW 10.4 mph 18.4 mph N/A   Partly Cloudy
10:53 AM 55.0 °F - 45.0 °F 69% 30.07 in 10.0 mi WNW 12.7 mph 20.7 mph N/A   Mostly Cloudy
11:53 AM 55.0 °F - 43.0 °F 64% 30.06 in 10.0 mi NW 13.8 mph 20.7 mph N/A   Partly Cloudy
12:53 PM 57.0 °F - 43.0 °F 59% 29.74 in 10.0 mi WNW 15.0 mph 20.7 mph N/A   Clear
1:53 PM 57.0 °F - 42.1 °F 57% 29.75 in 10.0 mi NNW 16.1 mph 21.9 mph N/A   Clear
2:53 PM 54.0 °F - 39.9 °F 59% 29.77 in 10.0 mi NW 11.5 mph 23.0 mph N/A   Clear
3:53 PM 53.1 °F - 37.9 °F 57% 29.79 in 10.0 mi North 11.5 mph - N/A   Clear
4:53 PM 48.0 °F - 34.0 °F 58% 30.12 in 10.0 mi NNW 12.7 mph - N/A   Clear
5:53 PM 44.1 °F 39.5 °F 34.0 °F 68% 30.14 in 10.0 mi NW 8.1 mph - N/A   Clear
6:53 PM 43.0 °F 38.8 °F 34.0 °F 71% 30.16 in 10.0 mi NW 6.9 mph - N/A   Clear
7:45 PM 42.8 °F 37.0 °F 33.8 °F 70% 30.19 in 10.0 mi NNW 10.4 mph 16.1 mph N/A   Mostly Cloudy
7:53 PM 43.0 °F 38.8 °F 33.1 °F 68% 30.16 in 10.0 mi NNW 6.9 mph 16.1 mph N/A   Mostly Cloudy
8:45 PM 42.8 °F 35.8 °F 30.2 °F 61% 30.21 in 10.0 mi NNW 13.8 mph 24.2 mph N/A   Scattered Clouds
8:53 PM 42.1 °F 34.5 °F 30.9 °F 65% 30.19 in 10.0 mi NNW 15.0 mph 24.2 mph N/A   Partly Cloudy
9:53 PM 39.9 °F 33.9 °F 30.0 °F 68% 30.20 in 10.0 mi NNW 9.2 mph - N/A   Clear
10:53 PM 37.9 °F 32.1 °F 30.0 °F 73% 30.20 in 10.0 mi NNW 8.1 mph - N/A   Clear
11:53 PM 37.9 °F 32.7 °F 30.0 °F 73% 30.21 in 10.0 mi NNW 6.9 mph - N/A   Clear